sat.trackr.live / text

‹ back to catalog

2023-091AL

NORAD 57200 · 2023-091AL

PAYLOAD ACTIVE UNKNOWN

§ Identity

Operator
Country
CIS
Launch date
2023-06-27
Launch site
VOSTO
Launch vehicle
Mass (kg)
RCS (m²)

External: N2YO · Heavens-Above · Gunter

§ Orbital elements

Epoch: 2026-09-21T22:01:01.335648Z

Period
92.83 min
Inclination
97.4969°
Eccentricity
0.0004767
Mean motion
15.51304111 rev/d
Perigee alt
409.7 km
Apogee alt
416.2 km
Semi-major
6,791.1 km
B*
5.0924e-4
RAAN
342.9392°
Arg perigee
70.1733°
Mean anomaly
290.0032°
Rev number
17,997

§ Raw data

2023-091AL1 57200U 23091AL  26264.91737657  .00029868  00000+0  50924-3 0  99992 57200  97.4969 342.9392 0004767  70.1733 290.0032 15.51304111179978

JSON: /api/v1/satellites/57200 · /tle

For live sub-satellite position, see the globe view (requires WebGL).

§ Visibility from observer

Set your observer location to see the next 7 days of passes ≥ 10°. The values pass through the URL so the page stays shareable.

No JS? Fill the form by hand. The geolocation button needs JavaScript.

§ Radio — SatNOGS DB

ModeDescriptionDownlinkUplink
FM Mode U - Beacon 435.720 MHz
FSK Mode U - FSK9k6 435.400 MHz

2 transmitters · refreshed weekly from db.satnogs.org